Regional Weather Roundup
Issued by NWS

Home | Current Version | Previous Version | Graphics & Text | Print | Product List | Glossary On
Versions: 1 2 3 4 5 6 7 8 9 10 11 12 13 14 15 16 17 18 19 20 21 22 23 24 25 26 27 28 29 30 31 32 33 34 35 36 37 38 39 40 41 42 43 44 45 46 47 48 49 50
000
ASUS43 KDMX 301606
RWRIA

WEATHER ROUNDUP FOR IOWA
NATIONAL WEATHER SERVICE DES MOINES IA
1100 AM CDT THU MAR 30 2017

NOTE: "FAIR" INDICATES FEW OR NO CLOUDS BELOW 12,000 FEET WITH NO
SIGNIFICANT WEATHER AND/OR OBSTRUCTIONS TO VISIBILITY.

* - THESE STATIONS ARE NOT NWS STATIONS...THUS NOT UNDER NWS
QUALITY CONTROL.  THEY ALSO DO NOT REPORT WEATHER SUCH
AS PRECIPITATION OR FOG.

IAZ001>003-012>014-020>022-031>034-043>046-301700-
   NORTHWEST IOWA

CITY           SKY/WX    TMP DP  RH WIND       PRES   REMARKS
CARROLL *      CLOUDY    39  39 100 NE16G24   29.73S FOG     WCI  30
CHEROKEE *     CLOUDY    38  38  99 NE13G21   29.77F WCI  31
DENISON *      CLOUDY    39  37  93 NE15G24   29.75F WCI  31
LE MARS *      CLOUDY    41  37  87 NE13G24   29.80F
ORANGE CITY *  CLOUDY    37  37 100 E13G20    29.78F WCI  29
SHELDON *      CLOUDY    39  37  93 NE21      29.78F WCI  29
SIOUX CITY     CLOUDY    40  38  93 NE14      29.79S WCI  32
SPENCER        CLOUDY    39  37  92 NE15      29.80F WCI  31
STORM LAKE *   CLOUDY    37  37 100 NE20      29.76F FOG     WCI  27
$$

IAZ055>058-069>071-079>083-090>094-301700-
   SOUTHWEST IOWA

CITY           SKY/WX    TMP DP  RH WIND       PRES   REMARKS
ATLANTIC *     CLOUDY    43  41  93 NE18G29   29.68S
AUDUBON *      CLOUDY    39  37  93 N15G21    29.71F FOG     WCI  31
CLARINDA *     CLOUDY    45  43  93 NE9G17    29.67R
COUNCIL BLFS *   N/A     41  41 100 NE16G26   29.70S
CRESTON *      CLOUDY    43  43 100 NE20      29.65S FOG
HARLAN  *      CLOUDY    41  41 100 NE23      29.73S
LAMONI         LGT RAIN  43  43 100 NE16      29.61R VSB 1
RED OAK *      MIX PCPN  43  43 100 NE18G25   29.67S
SHENANDOAH *   HVY RAIN  43  41  93 NE15      29.67R
$$

IAZ047>049-059>061-072>074-084-301700-
   CENTRAL IOWA

CITY           SKY/WX    TMP DP  RH WIND       PRES   REMARKS
AMES           CLOUDY    42  41  96 NE13G20   29.69F
ANKENY *       CLOUDY    43  41  93 NE14G21   29.68F FOG
BOONE *        CLOUDY    41  41 100 NE18      29.69S
CHARITON *     CLOUDY    43  43 100 NE14      29.63R FOG
DES MOINES     DRIZZLE   44  42  93 NE18      29.66  FOG
GRINNELL*      CLOUDY    41  40  95 NE15      29.65F
KNOXVILLE *    CLOUDY    43  43 100 NE15G21   29.62  FOG
MARSHALLTOWN   CLOUDY    42  40  92 NE17      29.67F
NEWTON *       CLOUDY    41  41 100 NE18G26   29.64F FOG
PELLA *        CLOUDY    43  42  97 NE5       29.65F FOG
PERRY *        CLOUDY    42  41  94 NE16      29.70S
$$

IAZ004>006-015-016-023>025-035-036-301700-
   NORTH CENTRAL IOWA

CITY           SKY/WX    TMP DP  RH WIND       PRES   REMARKS
ALGONA *       PTSUNNY   39  39 100 NE13      29.78S WCI  32
CLARION *      CLOUDY    39  39 100 NE18G25   29.74F FOG     WCI  30
ESTHERVILLE      N/A    N/A N/A N/A MISG      29.80F
FORT DODGE *   CLOUDY    39  36  87 NE13      29.75F WCI  32
MASON CITY     CLOUDY    40  37  89 NE13      29.78S WCI  32
FOREST CITY *  CLOUDY    37  36  93 NE12      29.78S WCI  30
WEBSTER CITY * CLOUDY    41  39  93 NE16      29.70F
IOWA FALLS *   CLOUDY    41  39  94 NE16      29.72F FOG
$$

IAZ007>011-017>019-026>030-037>042-050>054-066-301700-
   NORTHEAST IOWA

CITY           SKY/WX    TMP DP  RH WIND       PRES   REMARKS
CEDAR RAPIDS   LGT RAIN  42  42 100 NE10      29.67R FOG
CHARLES CITY * CLOUDY    41  41 100 E20       29.75F
CLINTON *      CLOUDY    43  42  97 E17       29.69R
DECORAH *      CLOUDY    37  37 100 NE13      29.76F FOG     WCI  29
DUBUQUE        LGT RAIN  39  37  92 NE25G36   29.65F WCI  28
MONTICELLO *   CLOUDY    41  39  93 E15       29.70R
OELWEIN *      CLOUDY    41  41 100 NE26G33   29.67F
WATERLOO       LGT RAIN  41  38  89 NE17      29.67F
$$

IAZ064-065-067-068-078-301700-
   EAST CENTRAL IOWA

CITY           SKY/WX    TMP DP  RH WIND       PRES   REMARKS
DAVENPORT      CLOUDY    44  42  93 E14       29.68R
IOWA CITY      CLOUDY    45  41  86 NE13      29.68R
MUSCATINE *    CLOUDY    46  43  87 E10       29.65S FOG
QUAD CITIES    CLOUDY    45  42  89 NE14      29.66R
$$

IAZ062-063-075>077-085>089-095>099-301700-
   SOUTHEAST IOWA

CITY           SKY/WX    TMP DP  RH WIND       PRES   REMARKS
BURLINGTON     CLOUDY    48  48 100 NE14      29.60R FOG
FAIRFIELD *    CLOUDY    45  45 100 NE10G17   29.62R FOG
FORT MADISON * CLOUDY    48  46  93 NE9       29.60R FOG
KEOKUK *       FOG       48  48 100 NE8       29.57R VSB 1/2
OSKALOOSA *    CLOUDY    43  42  97 NE15      29.65R FOG
CENTERVILLE *  CLOUDY    45  45 100 N13G18    29.61R FOG
OTTUMWA        FOG       45  45 100 NE13      29.63R VSB 1
WASHINGTON *   FOG       45  45 100 NE18G25   29.63R VSB 3/4
$$

ABBREVIATIONS USED IN REMARKS
   TC - TEMPERATURES IN CELSIUS
  WCI - WIND CHILL INDEX
   HX - HEAT INDEX
  VSB - VISIBILITY
$$




USA.gov is the U.S. government's official web portal to all federal, state and local government web resources and services.